User: anonymous   Login
Location: Unspecified
(0.0000°N, 0.0000°E)
Time: 00:04:28
(UTC+00:00)
Language:

STARLINK-32886 - Orbit

View from above orbital plane
View from above orbital plane
View from above satellite
View from above satellite

Ground track
Ground track

The orbit is defined by the following mean orbital elements,

1 62807U          26145.46000811 +.00000000 +00000-0 +51410-3 0 00008
2 62807  53.1596 312.9093 0001434  93.0968 267.0197 15.30206085    00
Epoch (UTC): 25 May 2026 11:02:24
Eccentricity: 0.0001434
inclination: 53.1596°
perigee height: 474 km
apogee height: 476 km
right ascension of ascending node: 312.9093°
argument of perigee: 93.0968°
revolutions per day: 15.30206085
mean anomaly at epoch: 267.0197°

The dashed part of the orbit path shows where the satellite is in the earth's shadow,  

DLR